Regional Weather Roundup
Issued by NWS

Home | Current Version | Previous Version | Graphics & Text | Print | Product List | Glossary On
Versions: 1 2 3 4 5 6 7 8 9 10 11 12 13 14 15 16 17 18 19 20 21 22 23 24 25 26 27 28 29 30 31 32 33 34 35 36 37 38 39 40 41 42 43 44 45 46 47 48 49 50
812
ASUS43 KLSX 290510
RWRMO

WEATHER SUMMARY FOR MISSOURI
NATIONAL WEATHER SERVICE SPRINGFIELD MO
1200 AM CDT MON AUG 29 2016

NOTE: "FAIR" INDICATES FEW OR NO CLOUDS BELOW 12,000 FEET WITH NO
       SIGNIFICANT WEATHER AND/OR OBSTRUCTIONS TO VISIBILITY.
       CURRENT SKY AND/OR WEATHER CONDITIONS ARE NOT AVAILABLE FOR
       CHILLICOTHE AND FARMINGTON.

MOZ001>031-035>038-043-044-053-054-290600-
...NORTHERN AND WESTERN MISSOURI...

CITY           SKY/WX    TMP DP  RH WIND       PRES   REMARKS
KANSAS CTY INT CLOUDY    74  68  81 E7        30.13F
KANSAS C DTWN  CLOUDY    72  68  87 E3        30.12F
LEE`S SUMMIT   CLEAR     73  70  90 NE3       30.14F
ST JOSEPH      MOCLDY    72  69  90 CALM      30.12F
KIRKSVILLE     CLOUDY    73  68  84 CALM      30.18S

$$
MOZ066>068-077>081-088>096-101>105-290600-
...SOUTHWEST MISSOURI...

CITY           SKY/WX    TMP DP  RH WIND       PRES   REMARKS
SPRINGFIELD    CLEAR     75  69  81 SE3       30.15S
JOPLIN         CLEAR     75  70  84 E6        30.13S
BRANSON        PTCLDY    73  70  88 CALM      30.16S

$$
MOZ032>034-039>042-045>050-055>058-069>072-290600-
...CENTRAL MISSOURI...

CITY           SKY/WX    TMP DP  RH WIND       PRES   REMARKS
COLUMBIA       CLEAR     75  73  93 E6        30.16S
JEFFERSON CITY CLEAR     74  73  97 SE3       30.14S
ROLLA          CLEAR     73  71  93 CALM      30.16S
SEDALIA        CLEAR     75  71  87 CALM      30.15S
WHITEMAN AFB   CLEAR     73  73 100 SE5       30.13S
OSAGE BEACH    CLEAR     74  71  91 CALM      30.16S

$$
MOZ051-052-059>065-290600-
...EAST CENTRAL MISSOURI...

CITY           SKY/WX    TMP DP  RH WIND       PRES   REMARKS
ST LOUIS INTL  PTCLDY    82  72  71 SE7       30.16R
SPIRIT OF STL  CLEAR     77  75  93 CALM      30.14R
ST CHARLES     CLEAR     78  75  90 CALM      30.14R

$$
MOZ072>076-082>087-097>100-106>115-290600-
...SOUTH CENTRAL AND SOUTHEAST MISSOURI...

CITY           SKY/WX    TMP DP  RH WIND       PRES   REMARKS
CAPE GIRARDEAU CLEAR     77  74  90 N6        30.12S
FARMINGTON     CLEAR     74  73  97 CALM      30.17S
POPLAR BLUFF   CLEAR     76  74  93 CALM      30.11S
WEST PLAINS    PTCLDY    73  70  90 N3        30.18S

$$




USA.gov is the U.S. government's official web portal to all federal, state and local government web resources and services.